Weather in Zaklinye

Russia / Pskov Oblast     57°41′20″N   29°53′24″E
temp.,
°C
wind,
m/s
gust,
m/s
humid.,
%
clouds,
%
prec.,
mm/h
press.,
hPa
HPBL,
m
27 july, tue
tue2700:00+17se22670 0.0 102024
03:00+16sse23720 0.0 102139
06:00+16ese23755 0.0 102058
09:00+22se2453100 0.0 1019365
12:00+27ese3340100 0.0 10181087
15:00+29se3438100 0.0 10172334
18:00+28se3446100 0.0 1015935
21:00+22se1167100 0.0 101422
28 july, wed
wed2800:00+19sse2480100 0.0 101483
03:00+18sse258299 0.1 1013106
06:00+18sse2583100 0.1 1011110
09:00+18s1191100 0.4 101132
12:00+18se1197100 2.1 101082
15:00+21s1386100 2.9 1010482
18:00+24wsw246648 0.0 10081050
21:00+19w11914 0.2 100711
29 july, thu
thu2900:00+17sw2295100 0.1 100733
03:00+16w2597100 0.1 1007100
06:00+16w2894100 0.0 1007204
09:00+20w477496 0.0 1006488
12:00+24w465086 0.0 10061352
15:00+23w476087 0.1 1006936
18:00+24wsw485268 0.0 10051734
21:00+21wsw386360 0.0 1004332
30 july, fri
fri3000:00+19sw2971100 0.0 1004237
03:00+16wsw299154 0.1 1004202
06:00+16sw3118882 0.0 1004329
09:00+17wsw4106579 0.0 1005808
12:00+23wsw6113619 0.0 10042286
15:00+24wsw61038100 0.0 10022844
18:00+23w594321 0.0 10021749
21:00+17ssw396217 0.0 1001206
31 july, sat
sat3100:00+16ssw310575 0.0 1001276
03:00+16sw513565 0.0 1001909
06:00+15sw513695 0.0 1001722
09:00+19wsw611635 0.0 1001870
12:00+23wsw694981 0.0 10021851
15:00+23w5105098 0.0 10022071
18:00+24w494664 0.0 10021760
21:00+18sw226549 0.0 100227